Location: Tel Aviv
(32.0670°N, 34.7670°E)
Time: 21:17:38
(UTC+02:00)

deb Explorer IX - All Passes

Search period start: 25 January 2022 00:00
Search period end: 04 February 2022 00:00
Orbit: 544 x 1082 km, 38.8° (Epoch: 24 January)

Date Brightness Start Highest point End Pass type
(mag) Time Alt. Az. Time Alt. Az. Time Alt. Az.
25 Jan - 10:10:41 10° S 10:14:04 18° SE 10:17:12 10° ESE daylight
25 Jan - 11:55:40 10° WSW 12:00:27 78° SSE 12:04:43 10° ENE daylight
25 Jan - 13:43:09 10° W 13:47:12 37° N 13:51:02 10° ENE daylight
25 Jan - 15:30:32 10° WNW 15:34:19 34° N 15:38:07 10° ENE daylight
25 Jan - 17:17:00 10° WNW 17:21:05 89° SW 17:25:29 10° ESE daylight
25 Jan - 19:04:23 10° W 19:07:23 18° SW 19:10:37 10° S visible
26 Jan - 09:44:40 10° S 09:48:13 18° SE 09:51:29 10° ESE daylight
26 Jan - 11:29:40 10° WSW 11:34:38 77° SSE 11:39:00 10° ENE daylight
26 Jan - 13:17:13 10° W 13:21:24 38° NNW 13:25:17 10° ENE daylight
26 Jan - 15:04:42 10° WNW 15:08:31 34° N 15:12:17 10° ENE daylight
26 Jan - 16:51:14 10° WNW 16:55:19 89° NE 16:59:36 10° ESE daylight
26 Jan - 18:38:38 10° W 18:41:34 18° SW 18:44:42 10° S visible
27 Jan - 09:18:37 10° S 09:22:20 18° SE 09:25:44 10° E daylight
27 Jan - 11:03:39 10° WSW 11:08:48 76° SSE 11:13:15 10° ENE daylight
27 Jan - 12:51:15 10° W 12:55:35 39° NNW 12:59:33 10° ENE daylight
27 Jan - 14:38:50 10° WNW 14:42:43 34° N 14:46:28 10° ENE daylight
27 Jan - 16:25:26 10° WNW 16:29:32 88° NNE 16:33:43 10° ESE daylight
27 Jan - 18:12:52 10° W 18:15:45 18° SW 18:18:48 10° S visible
28 Jan - 08:52:33 10° S 08:56:26 19° SE 08:59:58 10° E daylight
28 Jan - 10:37:36 10° WSW 10:42:56 75° SSE 10:47:31 10° ENE daylight
28 Jan - 12:25:14 10° W 12:29:45 40° NNW 12:33:48 10° ENE daylight
28 Jan - 14:12:55 10° WNW 14:16:54 34° N 14:20:40 10° ENE daylight
28 Jan - 15:59:36 10° WNW 16:03:44 86° NNE 16:07:52 10° ESE daylight
28 Jan - 17:47:03 10° W 17:49:57 18° SW 17:52:56 10° S visible
29 Jan - 08:26:28 10° S 08:30:32 19° SE 08:34:12 10° E daylight
29 Jan - 10:11:31 10° WSW 10:17:03 73° SSE 10:21:46 10° ENE daylight
29 Jan - 11:59:12 10° W 12:03:54 42° NNW 12:08:03 10° ENE daylight
29 Jan - 13:46:59 10° WNW 13:51:05 35° N 13:54:53 10° ENE daylight
29 Jan - 15:33:46 10° WNW 15:37:56 84° NNE 15:42:01 10° ESE daylight
29 Jan - 17:21:13 10° W 17:24:07 19° SW 17:27:05 10° S daylight
30 Jan - 08:00:22 10° S 08:04:35 19° SE 08:08:24 10° E daylight
30 Jan - 09:45:25 10° WSW 09:51:09 73° SSE 09:56:01 10° ENE daylight
30 Jan - 11:33:07 10° W 11:38:01 43° NNW 11:42:18 10° ENE daylight
30 Jan - 13:21:00 10° WNW 13:25:14 35° N 13:29:05 10° ENE daylight
30 Jan - 15:07:52 10° WNW 15:12:07 82° NNE 15:16:11 10° ESE daylight
30 Jan - 16:55:22 10° W 16:58:17 19° SW 17:01:15 10° S daylight
31 Jan - 07:34:15 10° S 07:38:37 20° SE 07:42:35 10° E daylight
31 Jan - 09:19:18 10° SW 09:25:13 72° SSE 09:30:14 10° ENE daylight
31 Jan - 11:07:01 10° W 11:12:08 45° NNW 11:16:33 10° ENE daylight
31 Jan - 12:54:59 10° WNW 12:59:22 36° N 13:03:18 10° ENE daylight
31 Jan - 14:41:57 10° WNW 14:46:18 80° NNE 14:50:22 10° ESE daylight
31 Jan - 16:29:28 10° W 16:32:27 19° SW 16:35:26 10° S daylight
01 Feb - 07:08:08 10° S 07:12:37 20° SE 07:16:44 10° E daylight
01 Feb - 08:53:08 10° SW 08:59:15 71° SSE 09:04:27 10° ENE daylight
01 Feb - 10:40:54 10° W 10:46:12 46° NNW 10:50:47 10° ENE daylight
01 Feb - 12:28:56 10° WNW 12:33:29 37° N 12:37:32 10° ENE daylight
01 Feb - 14:16:00 10° WNW 14:20:27 79° NNE 14:24:33 10° ESE daylight
01 Feb - 16:03:32 10° W 16:06:37 20° SW 16:09:39 10° SSE daylight
02 Feb - 06:42:00 10° S 06:46:36 20° SE 06:50:51 10° E daylight
02 Feb - 08:26:59 10° SW 08:33:16 70° SSE 08:38:38 10° ENE daylight
02 Feb - 10:14:44 10° W 10:20:16 48° NNW 10:25:01 10° ENE daylight
02 Feb - 12:02:51 10° WNW 12:07:35 37° N 12:11:45 10° ENE daylight
02 Feb - 13:50:02 10° WNW 13:54:37 78° NNE 13:58:45 10° ESE daylight
02 Feb - 15:37:35 10° W 15:40:47 21° SW 15:43:53 10° SSE daylight
03 Feb - 06:15:52 10° S 06:20:34 20° SE 06:24:56 10° E daylight
03 Feb - 08:00:48 10° SW 08:07:15 69° SSE 08:12:47 10° ENE daylight
03 Feb - 09:48:33 10° W 09:54:17 50° NNW 09:59:13 10° ENE daylight
03 Feb - 11:36:44 10° WNW 11:41:40 38° N 11:45:57 10° ENE daylight
03 Feb - 13:24:00 10° WNW 13:28:44 76° NNE 13:32:57 10° ESE daylight
03 Feb - 15:11:35 10° W 15:14:55 22° SW 15:18:07 10° SSE daylight
